Time,TemperatureF,DewpointF,PressureIn,WindDirection,WindDirectionDegrees,WindSpeedMPH,WindSpeedGustMPH,Humidity,HourlyPrecipIn,Conditions,Clouds,dailyrainin,SoftwareType,DateUTC
2013-08-28 13:14:00,81.0,73.0,29.76,South,172,0.0,-999.0,76,-99.99,,,-99.99,,2013-08-28 17:14:00,
2013-08-28 13:24:00,81.0,73.0,29.76,South,172,0.0,-999.0,76,-99.99,,,-99.99,,2013-08-28 17:24:00,
2013-08-28 13:52:00,79.0,75.0,29.76,SW,221,0.0,-999.0,87,-99.99,,,-99.99,,2013-08-28 17:52:00,
2013-08-28 14:12:00,79.0,75.0,29.76,SSW,203,0.0,-999.0,87,-99.99,,,-99.99,,2013-08-28 18:12:00,
2013-08-28 14:22:00,79.0,75.0,29.77,SW,220,0.0,-999.0,87,-99.99,,,-99.99,,2013-08-28 18:22:00,
2013-08-28 14:32:00,79.0,75.0,29.77,SW,220,0.0,-999.0,87,-99.99,,,-99.99,,2013-08-28 18:32:00,
2013-08-28 14:42:00,79.0,75.0,29.77,SW,220,0.0,-999.0,87,-99.99,,,-99.99,,2013-08-28 18:42:00,
2013-08-28 14:53:00,78.0,74.0,29.77,SSW,206,0.0,-999.0,88,-99.99,,,-99.99,,2013-08-28 18:53:00,
2013-08-28 15:12:00,77.0,73.0,29.76,SSW,206,0.0,-999.0,88,-99.99,,,-99.99,,2013-08-28 19:12:00,
2013-08-28 15:22:00,77.0,73.0,29.76,SSW,206,0.0,-999.0,87,-99.99,,,-99.99,,2013-08-28 19:22:00,
2013-08-28 15:42:00,77.0,74.0,29.75,SSW,206,0.0,-999.0,90,-99.99,,,-99.99,,2013-08-28 19:42:00,
2013-08-28 15:52:00,77.0,74.0,29.75,SSW,206,0.0,-999.0,90,-99.99,,,-99.99,,2013-08-28 19:52:00,
2013-08-28 16:12:00,77.0,74.0,29.75,SSW,206,0.0,-999.0,90,-99.99,,,-99.99,,2013-08-28 20:12:00,
2013-08-28 16:23:00,77.0,74.0,29.74,SSW,206,0.0,-999.0,89,-99.99,,,-99.99,,2013-08-28 20:23:00,
2013-08-28 16:43:00,77.0,74.0,29.73,SSW,206,0.0,-999.0,91,-99.99,,,-99.99,,2013-08-28 20:43:00,
2013-08-28 16:52:00,77.0,74.0,29.73,SSW,206,0.0,-999.0,91,-99.99,,,-99.99,,2013-08-28 20:52:00,
2013-08-28 17:12:00,77.0,74.0,29.74,SSE,147,0.0,-999.0,91,-99.99,,,-99.99,,2013-08-28 21:12:00,
2013-08-28 17:22:00,77.0,74.0,29.74,NNE,24,0.0,-999.0,91,-99.99,,,-99.99,,2013-08-28 21:22:00,
2013-08-28 17:57:00,76.0,74.0,29.73,ENE,61,0.0,-999.0,92,-99.99,,,-99.99,,2013-08-28 21:57:00,
2013-08-28 18:15:00,76.0,74.0,29.73,ENE,61,0.0,-999.0,93,-99.99,,,-99.99,,2013-08-28 22:15:00,
2013-08-28 18:25:00,76.0,74.0,29.73,ENE,70,0.0,-999.0,93,-99.99,,,-99.99,,2013-08-28 22:25:00,
2013-08-28 18:54:00,76.0,74.0,29.73,ENE,69,0.0,-999.0,93,-99.99,,,-99.99,,2013-08-28 22:54:00,
2013-08-28 19:13:00,76.0,74.0,29.73,ENE,69,0.0,-999.0,93,-99.99,,,-99.99,,2013-08-28 23:13:00,
2013-08-28 19:22:00,75.0,73.0,29.74,NNE,15,0.0,-999.0,93,-99.99,,,-99.99,,2013-08-28 23:22:00,
2013-08-28 19:53:00,74.0,72.0,29.74,ENE,60,0.0,-999.0,93,-99.99,,,-99.99,,2013-08-28 23:53:00,
2013-08-28 20:12:00,74.0,72.0,29.74,East,84,0.0,-999.0,94,-99.99,,,-99.99,,2013-08-29 00:12:00,
2013-08-28 21:13:00,73.0,71.0,29.75,NE,35,0.0,-999.0,94,-99.99,,,-99.99,,2013-08-29 01:13:00,
2013-08-28 21:22:00,72.0,70.0,29.76,NE,35,0.0,-999.0,94,-99.99,,,-99.99,,2013-08-29 01:22:00,
2013-08-28 21:42:00,72.0,70.0,29.75,NE,35,0.0,-999.0,95,-99.99,,,-99.99,,2013-08-29 01:42:00,
2013-08-28 21:52:00,72.0,70.0,29.75,NE,35,0.0,-999.0,95,-99.99,,,-99.99,,2013-08-29 01:52:00,
2013-08-28 22:12:00,72.0,70.0,29.75,NE,35,0.0,-999.0,95,-99.99,,,-99.99,,2013-08-29 02:12:00,
2013-08-28 22:22:00,72.0,70.0,29.76,NE,42,0.0,-999.0,95,-99.99,,,-99.99,,2013-08-29 02:22:00,
2013-08-28 23:11:00,71.0,69.0,29.77,East,80,0.0,-999.0,95,-99.99,,,-99.99,,2013-08-29 03:11:00,
2013-08-28 23:23:00,71.0,69.0,29.77,East,80,0.0,-999.0,95,-99.99,,,-99.99,,2013-08-29 03:23:00,
2013-08-28 23:57:00,70.0,69.0,29.77,ENE,63,0.0,-999.0,96,-99.99,,,-99.99,,2013-08-29 03:57:00,